World > North America > United States > California > Sunnyvale

Hourly Sunnyvale, CA Regional Weather

Feedback E-mail the Weather

Quick WX

Sunnyvale, CA Weather Maps

°F °C°F °C
Sunnyvale Weather Map
UTC Time: 8/8/2022, 19:32
Your Time:

Sunnyvale, CA Regional Weather

Expires:202208082000;;690767
ASUS46 KSTO 081915
RWRCA 

NORTHERN AND CENTRAL CA REGIONAL WEATHER ROUNDUP
NATIONAL WEATHER SERVICE SACRAMENTO CA 
1200 PM PDT MON AUG 08 2022

NOTE: FAIR INDICATES FEW OR NO CLOUDS BELOW 12,000 FEET WITH NO
SIGNIFICANT WEATHER AND/OR OBSTRUCTIONS TO VISIBILITY.


CAZ006-505>513-082000-
BAY AREA
  
CITY           SKY/WX    TMP DP  RH WIND       PRES   REMARKS
SANTA ROSA     SUNNY     75  56  51 CALM      30.01F                  
SAN RAFAEL     N/A       78  MM  MM MISG
NAPA           SUNNY     77  56  48 SW13      30.00F                  
CONCORD        MOSUNNY   78  54  43 W9        30.00F                  
OAKLAND CITY   N/A       67  MM  MM MISG
OAKLAND        MOSUNNY   70  57  63 W10       30.04F                  
SAN FRAN CITY  N/A       66  MM  68 MISG
SAN FRAN ARPT  MOSUNNY   70  56  61 W15       30.04S                  
LIVERMORE      SUNNY     75  55  49 W12       30.02S                  
HAYWARD        MOSUNNY   68  57  68 W10       30.04S                  
REDWOOD CITY   N/A       73  MM  58 MISG
MOFFETT ARPT   SUNNY     70  57  64 N12       30.04S                  
SAN JOSE ARPT  MOSUNNY   73  57  57 N10G20    30.04S                  
$$

SKY/WX - Weather  TMP - Temperature  DP - Dew Point  RH - Humidity
WIND - Wind Direction/Speed PRES - Barometric Pressure VSB - Visibility
WCI - Wind Chill Index E13G22 Wind - East Wind 13 mph/Gusts of 22 mph

Trending Headlines

Sunnyvale Radar Loop



Sunnyvale Quick Facts


National Two Day Weather Forecast


E-mail the Sunnyvale Weather Forecast

Voice your opinion or tell us about page issues...